Location: Austin
(30.3000°N, 97.7500°W)
Time: 09:05:07
(UTC-06:00)

CRYOSAT 2 - Pass Details

Date: 12 February 2024
Orbit: 718 x 720 km, 92.0° (Epoch: 28 February)

Event Time Altitude Azimuth Distance (km) Brightness Sun altitude
Rises 19:27:28 0° 171° (S) 3,110 7.6 -15.8°
Reaches altitude 10° 19:29:44 10° 170° (S) 2,194 6.8 -16.3°
Maximum altitude 19:34:35 81° 84° (E) 730 4.2 -17.3°
Drops below altitude 10° 19:39:28 10° 357° (N) 2,206 6.9 -18.4°
Sets 19:41:45 0° 357° (N) 3,129 7.7 -18.9°
